• In Germany
  • List of Countries
  • For 7 days
  • Water Temperature
  • Satellite Maps
  • Weather Map
  • Weather Widgets
  • user-avatar
    Login

    Hourly Weather Kos

    Today, 14 December, Thursday

    Time Temperature Precipitation Wind Pressure Humidity
    00:00 +12°C° 0 mm 3 mps 766 mmHg 94%
    01:00 +12°C° 0 mm 3 mps 766 mmHg 94%
    02:00 +12°C° 0 mm 3 mps 765 mmHg 94%
    03:00 +12°C° 0 mm 3 mps 765 mmHg 94%
    04:00 +12°C° 0 mm 3 mps 765 mmHg 94%
    05:00 +11°C° 0 mm 3 mps 765 mmHg 93%
    06:00 +12°C° 0 mm 4 mps 765 mmHg 93%
    07:00 +12°C° 0 mm 4 mps 765 mmHg 93%
    08:00 +12°C° 0 mm 5 mps 765 mmHg 92%
    09:00 +14°C° 0 mm 5 mps 765 mmHg 84%
    10:00 +15°C° 0 mm 5 mps 765 mmHg 76%
    11:00 +17°C° 0 mm 5 mps 765 mmHg 69%
    12:00 +19°C° 0 mm 5 mps 765 mmHg 67%
    13:00 +19°C° 0 mm 5 mps 764 mmHg 65%
    14:00 +20°C° 0 mm 5 mps 764 mmHg 64%
    15:00 +17°C° 0 mm 5 mps 764 mmHg 72%
    16:00 +17°C° 0 mm 4 mps 764 mmHg 79%
    17:00 +15°C° 0 mm 4 mps 764 mmHg 87%
    18:00 +14°C° 0 mm 4 mps 764 mmHg 89%
    19:00 +14°C° 0 mm 4 mps 764 mmHg 92%
    20:00 +13°C° 0 mm 4 mps 764 mmHg 94%
    21:00 +13°C° 0 mm 4 mps 764 mmHg 94%
    22:00 +13°C° 0 mm 5 mps 764 mmHg 94%
    23:00 +13°C° 0 mm 5 mps 764 mmHg 93%

    Tomorrow, 15 December, Friday

    Time Temperature Precipitation Wind Pressure Humidity
    00:00 +13°C° 0 mm 5 mps 764 mmHg 93%
    01:00 +11°C° 0 mm 6 mps 764 mmHg 92%
    02:00 +11°C° 0 mm 6 mps 764 mmHg 91%
    03:00 +12°C° 0 mm 5 mps 764 mmHg 91%
    04:00 +12°C° 0 mm 5 mps 764 mmHg 91%
    05:00 +12°C° 0 mm 5 mps 764 mmHg 91%
    06:00 +12°C° 0 mm 4 mps 764 mmHg 92%
    07:00 +12°C° 0 mm 4 mps 765 mmHg 92%
    08:00 +12°C° 0 mm 3 mps 765 mmHg 92%
    09:00 +14°C° 0 mm 4 mps 765 mmHg 85%
    10:00 +17°C° 0 mm 4 mps 765 mmHg 77%
    11:00 +19°C° 0 mm 5 mps 766 mmHg 69%
    12:00 +19°C° 0 mm 5 mps 765 mmHg 69%
    13:00 +19°C° 0 mm 6 mps 765 mmHg 68%
    14:00 +19°C° 0 mm 6 mps 765 mmHg 67%
    15:00 +17°C° 0 mm 6 mps 765 mmHg 73%
    16:00 +16°C° 0 mm 6 mps 765 mmHg 78%
    17:00 +15°C° 0 mm 5 mps 765 mmHg 84%
    18:00 +15°C° 0 mm 5 mps 765 mmHg 86%
    19:00 +15°C° 0 mm 5 mps 765 mmHg 87%
    20:00 +15°C° 0 mm 4 mps 766 mmHg 88%
    21:00 +15°C° 0.1 mm 5 mps 766 mmHg 88%
    22:00 +15°C° 0.1 mm 5 mps 766 mmHg 88%
    23:00 +15°C° 0.1 mm 5 mps 766 mmHg 88%

    Day after tomorrow, 16 December, Saturday

    Time Temperature Precipitation Wind Pressure Humidity
    00:00 +15°C° 0.1 mm 5 mps 766 mmHg 89%
    01:00 +14°C° 0.1 mm 5 mps 766 mmHg 89%
    02:00 +14°C° 0.1 mm 5 mps 766 mmHg 89%
    03:00 +13°C° 0 mm 5 mps 766 mmHg 89%
    04:00 +13°C° 0 mm 5 mps 765 mmHg 89%
    05:00 +13°C° 0 mm 5 mps 765 mmHg 89%
    06:00 +13°C° 0 mm 5 mps 766 mmHg 90%
    07:00 +13°C° 0 mm 5 mps 766 mmHg 90%
    08:00 +13°C° 0 mm 5 mps 766 mmHg 90%
    09:00 +15°C° 0 mm 6 mps 766 mmHg 84%
    10:00 +16°C° 0 mm 7 mps 766 mmHg 77%
    11:00 +18°C° 0 mm 7 mps 766 mmHg 71%
    12:00 +18°C° 0 mm 8 mps 765 mmHg 69%
    13:00 +18°C° 0 mm 8 mps 765 mmHg 67%
    14:00 +19°C° 0 mm 9 mps 764 mmHg 65%
    15:00 +18°C° 0 mm 10 mps 764 mmHg 71%
    16:00 +17°C° 0 mm 10 mps 764 mmHg 76%
    17:00 +16°C° 0 mm 11 mps 764 mmHg 81%
    18:00 +16°C° 0.1 mm 11 mps 764 mmHg 82%
    19:00 +16°C° 0.1 mm 11 mps 764 mmHg 82%
    20:00 +16°C° 0.1 mm 11 mps 764 mmHg 83%
    21:00 +14°C° 0 mm 12 mps 764 mmHg 84%
    22:00 +14°C° 0 mm 12 mps 764 mmHg 84%
    23:00 +14°C° 0 mm 13 mps 763 mmHg 85%

    17 December, Sunday

    Time Temperature Precipitation Wind Pressure Humidity
    00:00 +14°C° 0.1 mm 13 mps 763 mmHg 84%
    01:00 +15°C° 0.1 mm 13 mps 763 mmHg 82%
    02:00 +15°C° 0.1 mm 13 mps 763 mmHg 81%
    03:00 +15°C° 0.2 mm 13 mps 762 mmHg 82%
    04:00 +15°C° 0.2 mm 13 mps 762 mmHg 83%
    05:00 +15°C° 0.2 mm 13 mps 762 mmHg 84%
    06:00 +15°C° 0.3 mm 12 mps 762 mmHg 83%
    07:00 +15°C° 0.3 mm 12 mps 762 mmHg 83%
    08:00 +16°C° 0.3 mm 11 mps 763 mmHg 83%
    09:00 +16°C° 0.5 mm 10 mps 763 mmHg 84%
    10:00 +16°C° 0.5 mm 9 mps 764 mmHg 85%
    11:00 +16°C° 0.5 mm 8 mps 764 mmHg 85%
    12:00 +17°C° 0.2 mm 8 mps 764 mmHg 80%
    13:00 +17°C° 0.2 mm 7 mps 763 mmHg 75%
    14:00 +17°C° 0.2 mm 7 mps 763 mmHg 69%
    15:00 +16°C° 0 mm 6 mps 764 mmHg 73%
    16:00 +15°C° 0 mm 6 mps 764 mmHg 78%
    17:00 +14°C° 0 mm 5 mps 764 mmHg 82%
    18:00 +14°C° 0.1 mm 5 mps 764 mmHg 84%
    19:00 +13°C° 0.1 mm 4 mps 765 mmHg 85%
    20:00 +13°C° 0.1 mm 3 mps 765 mmHg 87%
    21:00 +13°C° 0.2 mm 4 mps 765 mmHg 86%
    22:00 +13°C° 0.2 mm 4 mps 765 mmHg 86%
    23:00 +13°C° 0.2 mm 4 mps 766 mmHg 85%

    18 December, Monday

    Time Temperature Precipitation Wind Pressure Humidity
    00:00 +13°C° 0.3 mm 4 mps 765 mmHg 85%
    01:00 +14°C° 0.3 mm 5 mps 765 mmHg 86%
    02:00 +14°C° 0.3 mm 5 mps 765 mmHg 86%
    03:00 +14°C° 0 mm 6 mps 765 mmHg 84%
    04:00 +14°C° 0 mm 6 mps 765 mmHg 82%
    05:00 +14°C° 0 mm 6 mps 765 mmHg 79%
    06:00 +13°C° 0 mm 5 mps 765 mmHg 79%
    07:00 +13°C° 0 mm 5 mps 766 mmHg 79%
    08:00 +12°C° 0 mm 5 mps 766 mmHg 79%
    09:00 +13°C° 0.1 mm 4 mps 766 mmHg 73%
    10:00 +14°C° 0.1 mm 4 mps 766 mmHg 67%
    11:00 +17°C° 0.1 mm 4 mps 766 mmHg 61%
    12:00 +17°C° 0.1 mm 4 mps 766 mmHg 60%
    13:00 +17°C° 0.1 mm 4 mps 765 mmHg 60%
    14:00 +17°C° 0.1 mm 4 mps 765 mmHg 59%
    15:00 +15°C° 0.3 mm 4 mps 765 mmHg 65%
    16:00 +13°C° 0.3 mm 4 mps 765 mmHg 71%
    17:00 +12°C° 0.3 mm 4 mps 765 mmHg 76%
    18:00 +12°C° 0.2 mm 4 mps 765 mmHg 77%
    19:00 +12°C° 0.2 mm 4 mps 766 mmHg 77%
    20:00 +12°C° 0.2 mm 4 mps 766 mmHg 77%
    21:00 +12°C° 0.2 mm 5 mps 766 mmHg 80%
    22:00 +10°C° 0.2 mm 5 mps 766 mmHg 83%
    23:00 +10°C° 0.2 mm 5 mps 766 mmHg 85%

    19 December, Tuesday

    Time Temperature Precipitation Wind Pressure Humidity
    00:00 +10°C° 0.1 mm 5 mps 766 mmHg 86%
    01:00 +9°C° 0.1 mm 6 mps 766 mmHg 86%
    02:00 +9°C° 0.1 mm 6 mps 766 mmHg 87%
    03:00 +8°C° 0 mm 6 mps 766 mmHg 88%
    04:00 +8°C° 0 mm 6 mps 766 mmHg 89%
    05:00 +7°C° 0 mm 5 mps 766 mmHg 91%
    06:00 +7°C° 0 mm 5 mps 767 mmHg 91%
    07:00 +7°C° 0 mm 5 mps 767 mmHg 92%
    08:00 +6°C° 0 mm 5 mps 767 mmHg 92%
    09:00 +8°C° 0 mm 5 mps 767 mmHg 83%
    10:00 +10°C° 0 mm 4 mps 767 mmHg 74%
    11:00 +12°C° 0 mm 4 mps 767 mmHg 65%
    12:00 +12°C° 0 mm 4 mps 767 mmHg 62%
    13:00 +13°C° 0 mm 5 mps 766 mmHg 58%
    14:00 +13°C° 0 mm 5 mps 766 mmHg 54%
    15:00 +12°C° 0 mm 5 mps 766 mmHg 57%
    16:00 +10°C° 0 mm 6 mps 766 mmHg 61%
    17:00 +9°C° 0 mm 6 mps 766 mmHg 65%
    18:00 +8°C° 0 mm 5 mps 766 mmHg 66%
    19:00 +7°C° 0 mm 5 mps 766 mmHg 68%
    20:00 +7°C° 0 mm 4 mps 766 mmHg 70%
    21:00 +7°C° 0 mm 4 mps 766 mmHg 71%
    22:00 +6°C° 0 mm 4 mps 766 mmHg 73%
    23:00 +6°C° 0 mm 4 mps 766 mmHg 75%
    Show more